QPF
0.06 0.05 0.04 0.04 0.04 0.03 0.04 0.04 0.05 0.05 0.05 0.05 0.06 0.05 0.04 0.04 0.05 0.04 0.03 0.03 0.04 0.07 0.13 0.18 0.21 0.20 0.17 0.14 0.10 0.09 0.09 0.07 0.05 0.03 0.03 0.04 0.03 0.01 0.00 0.01 0.00 0.00 0.00
0.05 0.03 0.03 0.03 0.02 0.02 0.02 0.02 0.03 0.03 0.04 0.04 0.04 0.03 0.03 0.04 0.04 0.04 0.04 0.05 0.05 0.05 0.09 0.14 0.19 0.21 0.18 0.18 0.17 0.15 0.13 0.11 0.09 0.05 0.03 0.04 0.03 0.02 0.02 0.01 0.01 0.00 0.00
0.03 0.02 0.02 0.01 0.01 0.01 0.01 0.01 0.01 0.01 0.01 0.01 0.02 0.02 0.03 0.03 0.03 0.03 0.03 0.04 0.04 0.04 0.06 0.09 0.14 0.18 0.20 0.19 0.18 0.19 0.18 0.14 0.11 0.08 0.05 0.03 0.03 0.02 0.02 0.01 0.01 0.00 0.00
0.02 0.01 0.01 0.01 0.00 0.00 0.00 0.00 0.00 0.00 0.00 0.00 0.00 0.00 0.00 0.01 0.01 0.02 0.03 0.03 0.05 0.04 0.05 0.06 0.10 0.12 0.14 0.19 0.19 0.19 0.19 0.18 0.14 0.10 0.08 0.05 0.04 0.04 0.03 0.02 0.01 0.00 0.00
0.01 0.01 0.01 0.00 0.00 0.00 0.00 0.00 0.00 0.00 0.00 0.00 0.00 0.00 0.00 0.00 0.00 0.01 0.01 0.03 0.04 0.05 0.06 0.06 0.06 0.08 0.12 0.17 0.24 0.26 0.22 0.19 0.17 0.14 0.11 0.08 0.06 0.05 0.05 0.04 0.02 0.01 0.00
0.00 0.00 0.00 0.00 0.00 0.00 0.00 0.00 0.00 0.00 0.00 0.00 0.00 0.00 0.00 0.00 0.00 0.00 0.00 0.01 0.02 0.03 0.05 0.07 0.09 0.09 0.10 0.13 0.19 0.24 0.24 0.23 0.19 0.17 0.17 0.14 0.09 0.06 0.04 0.03 0.03 0.02 0.01
0.00 0.00 0.00 0.00 0.00 0.00 0.00 0.00 0.00 0.00 0.00 0.00 0.00 0.00 0.00 0.00 0.00 0.00 0.00 0.00 0.00 0.01 0.02 0.04 0.07 0.09 0.12 0.09 0.09 0.12 0.18 0.23 0.22 0.20 0.19 0.18 0.14 0.09 0.06 0.04 0.03 0.03 0.02
0.00 0.00 0.00 0.00 0.00 0.00 0.00 0.00 0.00 0.00 0.00 0.00 0.00 0.00 0.00 0.00 0.00 0.00 0.00 0.00 0.00 0.00 0.01 0.02 0.04 0.06 0.09 0.12 0.09 0.07 0.12 0.17 0.23 0.25 0.21 0.18 0.14 0.12 0.10 0.07 0.04 0.03 0.02
0.00 0.00 0.00 0.00 0.00 0.00 0.00 0.00 0.00 0.00 0.00 0.00 0.00 0.00 0.00 0.00 0.00 0.00 0.00 0.00 0.00 0.00 0.01 0.01 0.01 0.03 0.04 0.06 0.08 0.05 0.05 0.08 0.13 0.19 0.21 0.21 0.16 0.13 0.12 0.11 0.09 0.06 0.04
0.00 0.00 0.00 0.00 0.00 0.00 0.00 0.00 0.00 0.00 0.00 0.00 0.00 0.00 0.00 0.00 0.00 0.00 0.00 0.00 0.00 0.00 0.00 0.00 0.01 0.01 0.02 0.01 0.03 0.02 0.02 0.02 0.05 0.10 0.16 0.16 0.14 0.13 0.12 0.12 0.14 0.12 0.09
0.00 0.00 0.00 0.00 0.00 0.00 0.00 0.00 0.00 0.00 0.00 0.00 0.00 0.00 0.00 0.00 0.00 0.00 0.00 0.00 0.00 0.00 0.00 0.00 0.00 0.00 0.01 0.01 0.02 0.02 0.01 0.01 0.02 0.04 0.07 0.11 0.12 0.12 0.12 0.12 0.15 0.16 0.14
0.00 0.00 0.00 0.00 0.00 0.00 0.00 0.00 0.00 0.00 0.00 0.00 0.00 0.00 0.00 0.00 0.00 0.00 0.00 0.00 0.00 0.00 0.00 0.00 0.00 0.00 0.00 0.00 0.00 0.00 0.00 0.01 0.02 0.02 0.03 0.05 0.08 0.10 0.12 0.13 0.13 0.15 0.16
0.00 0.00 0.00 0.00 0.00 0.00 0.00 0.00 0.00 0.00 0.00 0.00 0.00 0.00 0.00 0.00 0.00 0.00 0.00 0.00 0.00 0.00 0.00 0.00 0.00 0.00 0.00 0.00 0.00 0.00 0.00 0.00 0.01 0.01 0.02 0.02 0.03 0.05 0.08 0.12 0.14 0.14 0.14
0.00 0.00 0.00 0.00 0.00 0.00 0.00 0.00 0.00 0.00 0.00 0.00 0.00 0.00 0.00 0.00 0.00 0.00 0.00 0.00 0.00 0.00 0.00 0.00 0.00 0.00 0.00 0.00 0.00 0.00 0.00 0.00 0.00 0.00 0.01 0.02 0.02 0.02 0.03 0.05 0.09 0.12 0.12
0.00 0.00 0.00 0.00 0.00 0.00 0.00 0.00 0.00 0.00 0.00 0.00 0.00 0.00 0.00 0.00 0.00 0.00 0.00 0.00 0.00 0.00 0.00 0.00 0.00 0.00 0.00 0.00 0.00 0.00 0.00 0.00 0.00 0.00 0.00 0.01 0.01 0.02 0.02 0.02 0.03 0.06 0.08
0.00 0.00 0.00 0.00 0.00 0.00 0.00 0.00 0.00 0.00 0.00 0.00 0.00 0.00 0.00 0.00 0.00 0.00 0.00 0.00 0.00 0.00 0.00 0.00 0.00 0.00 0.00 0.00 0.00 0.00 0.00 0.00 0.00 0.00 0.00 0.00 0.01 0.01 0.02 0.02 0.02 0.03 0.04
0.00 0.00 0.00 0.00 0.00 0.00 0.00 0.00 0.00 0.00 0.00 0.00 0.00 0.00 0.00 0.01 0.01 0.00 0.00 0.00 0.00 0.00 0.00 0.00 0.00 0.00 0.00 0.00 0.00 0.00 0.00 0.00 0.00 0.00 0.00 0.00 0.00 0.00 0.01 0.01 0.01 0.02 0.02
0.00 0.00 0.00 0.00 0.00 0.00 0.00 0.00 0.00 0.00 0.00 0.00 0.00 0.00 0.00 0.00 0.01 0.00 0.00 0.00 0.00 0.01 0.00 0.00 0.00 0.00 0.00 0.00 0.00 0.00 0.00 0.00 0.00 0.00 0.00 0.00 0.00 0.00 0.00 0.00 0.00 0.01 0.01
0.01 0.00 0.00 0.00 0.00 0.00 0.00 0.00 0.00 0.00 0.00 0.00 0.00 0.00 0.00 0.00 0.00 0.01 0.01 0.00 0.00 0.00 0.00 0.00 0.00 0.00 0.00 0.00 0.00 0.00 0.00 0.00 0.00 0.00 0.00 0.00 0.00 0.00 0.00 0.00 0.00 0.00 0.00
0.01 0.01 0.00 0.00 0.00 0.00 0.00 0.00 0.00 0.00 0.00 0.00 0.00 0.00 0.00 0.00 0.00 0.01 0.01 0.01 0.01 0.00 0.01 0.01 0.00 0.00 0.00 0.00 0.00 0.00 0.00 0.00 0.00 0.00 0.00 0.00 0.00 0.00 0.00 0.00 0.00 0.00 0.00
0.01 0.01 0.01 0.00 0.00 0.00 0.00 0.00 0.00 0.00 0.00 0.00 0.00 0.00 0.00 0.00 0.00 0.00 0.00 0.00 0.00 0.01 0.01 0.01 0.00 0.00 0.00 0.00 0.00 0.00 0.00 0.00 0.00 0.00 0.00 0.00 0.00 0.00 0.00 0.00 0.00 0.00 0.00
0.01 0.01 0.01 0.01 0.00 0.00 0.00 0.00 0.00 0.00 0.00 0.00 0.00 0.00 0.00 0.00 0.00 0.00 0.00 0.00 0.00 0.01 0.01 0.01 0.01 0.00 0.00 0.01 0.01 0.01 0.01 0.00 0.00 0.00 0.01 0.00 0.00 0.00 0.00 0.00 0.00 0.00 0.00
0.01 0.01 0.01 0.01 0.00 0.00 0.01 0.01 0.00 0.00 0.00 0.00 0.00 0.00 0.00 0.00 0.00 0.00 0.00 0.00 0.00 0.00 0.00 0.01 0.01 0.01 0.01 0.01 0.02 0.01 0.02 0.02 0.01 0.01 0.01 0.00 0.00 0.00 0.00 0.00 0.00 0.00 0.00
0.01 0.01 0.00 0.01 0.01 0.01 0.01 0.01 0.01 0.01 0.00 0.00 0.00 0.00 0.00 0.00 0.00 0.00 0.00 0.00 0.00 0.00 0.00 0.00 0.01 0.01 0.01 0.01 0.02 0.02 0.02 0.02 0.01 0.01 0.01 0.00 0.00 0.00 0.00 0.00 0.00 0.00 0.00
0.00 0.00 0.00 0.00 0.00 0.00 0.01 0.00 0.01 0.00 0.00 0.00 0.00 0.00 0.00 0.00 0.00 0.00 0.00 0.01 0.01 0.00 0.00 0.00 0.00 0.00 0.00 0.00 0.01 0.01 0.01 0.01 0.01 0.00 0.01 0.01 0.00 0.00 0.00 0.00 0.00 0.00 0.00
0.00 0.00 0.00 0.00 0.00 0.00 0.01 0.01 0.01 0.00 0.00 0.00 0.00 0.00 0.00 0.00 0.00 0.00 0.00 0.00 0.00 0.00 0.00 0.01 0.00 0.00 0.00 0.00 0.00 0.00 0.01 0.01 0.01 0.01 0.01 0.02 0.01 0.01 0.01 0.00 0.00 0.00 0.00
MSLP
1019.55 1019.58 1019.51 1019.35 1019.17 1018.98 1018.82 1018.69 1018.60 1018.53 1018.47 1018.39 1018.30 1018.22 1018.17 1018.16 1018.24 1018.41 1018.67 1018.99 1019.35 1019.70 1020.01 1020.27 1020.45 1020.57 1020.66 1020.75 1020.85 1020.99 1021.17 1021.38 1021.60 1021.82 1022.03 1022.20 1022.36 1022.50 1022.65 1022.81 1023.00 1023.21 1023.45
1019.78 1019.82 1019.74 1019.58 1019.37 1019.16 1018.97 1018.82 1018.71 1018.64 1018.58 1018.53 1018.47 1018.40 1018.35 1018.34 1018.39 1018.50 1018.70 1018.95 1019.24 1019.54 1019.82 1020.06 1020.25 1020.40 1020.53 1020.65 1020.78 1020.95 1021.14 1021.36 1021.59 1021.82 1022.02 1022.20 1022.36 1022.49 1022.63 1022.78 1022.94 1023.14 1023.36
1019.97 1020.04 1019.99 1019.84 1019.64 1019.42 1019.22 1019.05 1018.93 1018.85 1018.80 1018.76 1018.72 1018.66 1018.61 1018.58 1018.59 1018.65 1018.76 1018.93 1019.15 1019.38 1019.61 1019.83 1020.02 1020.19 1020.33 1020.48 1020.64 1020.82 1021.03 1021.25 1021.49 1021.72 1021.92 1022.11 1022.27 1022.40 1022.53 1022.66 1022.81 1022.99 1023.21
1020.13 1020.24 1020.23 1020.12 1019.95 1019.74 1019.53 1019.36 1019.23 1019.14 1019.09 1019.05 1019.02 1018.97 1018.91 1018.86 1018.83 1018.82 1018.86 1018.95 1019.08 1019.24 1019.42 1019.60 1019.77 1019.93 1020.08 1020.23 1020.40 1020.59 1020.79 1021.02 1021.25 1021.48 1021.69 1021.88 1022.04 1022.18 1022.31 1022.44 1022.59 1022.77 1022.98
1020.22 1020.39 1020.44 1020.39 1020.25 1020.07 1019.88 1019.71 1019.57 1019.47 1019.41 1019.37 1019.33 1019.28 1019.22 1019.15 1019.08 1019.02 1018.99 1018.99 1019.04 1019.13 1019.24 1019.36 1019.50 1019.63 1019.77 1019.91 1020.07 1020.25 1020.45 1020.66 1020.89 1021.11 1021.32 1021.51 1021.68 1021.83 1021.97 1022.11 1022.27 1022.46 1022.68
1020.25 1020.47 1020.59 1020.60 1020.53 1020.39 1020.23 1020.06 1019.92 1019.81 1019.73 1019.68 1019.64 1019.58 1019.51 1019.42 1019.32 1019.22 1019.13 1019.07 1019.04 1019.05 1019.09 1019.16 1019.24 1019.34 1019.44 1019.56 1019.69 1019.84 1020.02 1020.21 1020.42 1020.63 1020.83 1021.03 1021.20 1021.36 1021.51 1021.67 1021.84 1022.05 1022.30
1020.20 1020.47 1020.66 1020.75 1020.74 1020.66 1020.53 1020.39 1020.24 1020.13 1020.04 1019.97 1019.92 1019.86 1019.78 1019.68 1019.56 1019.42 1019.29 1019.18 1019.09 1019.03 1019.00 1019.00 1019.03 1019.08 1019.14 1019.22 1019.31 1019.43 1019.57 1019.73 1019.92 1020.11 1020.30 1020.48 1020.66 1020.82 1020.98 1021.15 1021.34 1021.56 1021.83
1020.09 1020.41 1020.66 1020.82 1020.88 1020.86 1020.78 1020.66 1020.53 1020.41 1020.32 1020.24 1020.17 1020.10 1020.02 1019.92 1019.79 1019.64 1019.48 1019.32 1019.18 1019.07 1018.98 1018.93 1018.90 1018.90 1018.91 1018.95 1019.00 1019.08 1019.18 1019.31 1019.46 1019.62 1019.79 1019.95 1020.11 1020.27 1020.42 1020.58 1020.77 1020.99 1021.27
1019.92 1020.27 1020.57 1020.80 1020.93 1020.98 1020.96 1020.88 1020.77 1020.66 1020.55 1020.47 1020.40 1020.33 1020.25 1020.15 1020.01 1019.85 1019.68 1019.50 1019.33 1019.17 1019.04 1018.94 1018.87 1018.82 1018.79 1018.79 1018.81 1018.85 1018.91 1019.00 1019.11 1019.24 1019.36 1019.49 1019.62 1019.74 1019.87 1020.01 1020.17 1020.38 1020.64
1019.72 1020.08 1020.42 1020.70 1020.90 1021.02 1021.05 1021.01 1020.93 1020.84 1020.75 1020.67 1020.60 1020.53 1020.45 1020.35 1020.23 1020.08 1019.90 1019.71 1019.51 1019.33 1019.17 1019.03 1018.92 1018.84 1018.78 1018.74 1018.73 1018.74 1018.77 1018.82 1018.89 1018.97 1019.06 1019.15 1019.22 1019.30 1019.38 1019.47 1019.59 1019.75 1019.97
1019.49 1019.85 1020.22 1020.54 1020.80 1020.97 1021.05 1021.07 1021.03 1020.96 1020.89 1020.82 1020.76 1020.70 1020.63 1020.54 1020.42 1020.27 1020.10 1019.90 1019.70 1019.51 1019.33 1019.17 1019.03 1018.92 1018.84 1018.78 1018.74 1018.72 1018.72 1018.74 1018.77 1018.82 1018.85 1018.89 1018.92 1018.94 1018.96 1018.99 1019.05 1019.15 1019.32
1019.24 1019.61 1019.98 1020.33 1020.62 1020.84 1020.97 1021.03 1021.03 1021.00 1020.95 1020.90 1020.85 1020.80 1020.75 1020.67 1020.57 1020.43 1020.26 1020.07 1019.87 1019.66 1019.47 1019.29 1019.14 1019.01 1018.91 1018.82 1018.76 1018.72 1018.70 1018.69 1018.69 1018.70 1018.70 1018.70 1018.68 1018.65 1018.61 1018.58 1018.58 1018.62 1018.72
1019.00 1019.35 1019.73 1020.09 1020.40 1020.65 1020.81 1020.90 1020.94 1020.93 1020.91 1020.89 1020.86 1020.83 1020.79 1020.73 1020.64 1020.52 1020.36 1020.17 1019.97 1019.76 1019.56 1019.37 1019.20 1019.04 1018.92 1018.81 1018.73 1018.66 1018.62 1018.59 1018.57 1018.55 1018.53 1018.50 1018.46 1018.39 1018.32 1018.24 1018.19 1018.17 1018.22
1018.76 1019.10 1019.47 1019.83 1020.14 1020.39 1020.57 1020.68 1020.74 1020.77 1020.77 1020.77 1020.77 1020.76 1020.74 1020.70 1020.63 1020.52 1020.37 1020.19 1019.99 1019.78 1019.56 1019.35 1019.16 1018.99 1018.84 1018.70 1018.59 1018.50 1018.43 1018.38 1018.34 1018.32 1018.29 1018.26 1018.21 1018.13 1018.05 1017.96 1017.88 1017.83 1017.83
1018.53 1018.86 1019.21 1019.54 1019.84 1020.08 1020.26 1020.38 1020.45 1020.50 1020.53 1020.55 1020.58 1020.60 1020.60 1020.58 1020.53 1020.43 1020.29 1020.12 1019.92 1019.71 1019.48 1019.26 1019.04 1018.84 1018.65 1018.48 1018.33 1018.21 1018.11 1018.04 1017.99 1017.96 1017.94 1017.92 1017.88 1017.83 1017.77 1017.69 1017.61 1017.55 1017.54
1018.29 1018.62 1018.95 1019.26 1019.52 1019.73 1019.90 1020.01 1020.09 1020.15 1020.20 1020.25 1020.30 1020.34 1020.37 1020.38 1020.34 1020.27 1020.15 1019.99 1019.79 1019.58 1019.34 1019.10 1018.86 1018.62 1018.40 1018.19 1017.99 1017.83 1017.70 1017.59 1017.53 1017.50 1017.48 1017.48 1017.47 1017.46 1017.43 1017.40 1017.35 1017.32 1017.30
1018.05 1018.37 1018.67 1018.95 1019.18 1019.36 1019.50 1019.60 1019.68 1019.74 1019.81 1019.88 1019.96 1020.03 1020.08 1020.11 1020.10 1020.05 1019.95 1019.80 1019.62 1019.41 1019.18 1018.93 1018.66 1018.40 1018.14 1017.88 1017.64 1017.42 1017.24 1017.10 1017.01 1016.96 1016.95 1016.96 1016.98 1017.01 1017.03 1017.04 1017.04 1017.05 1017.07
1017.76 1018.08 1018.37 1018.62 1018.82 1018.97 1019.09 1019.17 1019.25 1019.32 1019.40 1019.49 1019.59 1019.68 1019.76 1019.81 1019.82 1019.79 1019.71 1019.59 1019.43 1019.23 1019.01 1018.77 1018.50 1018.21 1017.92 1017.62 1017.34 1017.07 1016.84 1016.65 1016.51 1016.42 1016.39 1016.39 1016.43 1016.48 1016.54 1016.59 1016.65 1016.70 1016.75
1017.40 1017.73 1018.01 1018.24 1018.43 1018.57 1018.66 1018.74 1018.82 1018.90 1018.98 1019.09 1019.20 1019.31 1019.40 1019.47 1019.50 1019.49 1019.44 1019.35 1019.22 1019.05 1018.85 1018.63 1018.37 1018.09 1017.78 1017.46 1017.13 1016.81 1016.52 1016.27 1016.07 1015.93 1015.85 1015.83 1015.84 1015.89 1015.96 1016.04 1016.13 1016.22 1016.32
1016.94 1017.29 1017.58 1017.82 1017.99 1018.13 1018.23 1018.32 1018.39 1018.48 1018.58 1018.68 1018.80 1018.91 1019.01 1019.09 1019.14 1019.15 1019.12 1019.06 1018.97 1018.84 1018.68 1018.49 1018.26 1018.00 1017.70 1017.36 1017.01 1016.66 1016.31 1016.00 1015.73 1015.52 1015.37 1015.28 1015.25 1015.26 1015.32 1015.40 1015.50 1015.61 1015.74
1016.37 1016.74 1017.05 1017.31 1017.51 1017.66 1017.78 1017.87 1017.96 1018.05 1018.16 1018.26 1018.37 1018.48 1018.58 1018.65 1018.70 1018.72 1018.72 1018.69 1018.63 1018.55 1018.45 1018.30 1018.12 1017.90 1017.62 1017.30 1016.94 1016.56 1016.17 1015.80 1015.46 1015.16 1014.93 1014.77 1014.66 1014.62 1014.62 1014.68 1014.77 1014.89 1015.03
1015.68 1016.09 1016.43 1016.72 1016.96 1017.14 1017.29 1017.41 1017.51 1017.61 1017.71 1017.80 1017.90 1017.99 1018.07 1018.12 1018.17 1018.19 1018.20 1018.20 1018.18 1018.15 1018.09 1018.01 1017.88 1017.70 1017.47 1017.17 1016.82 1016.44 1016.03 1015.61 1015.21 1014.85 1014.53 1014.28 1014.10 1013.98 1013.92 1013.92 1013.98 1014.08 1014.22
1014.91 1015.35 1015.73 1016.07 1016.35 1016.57 1016.75 1016.90 1017.02 1017.12 1017.21 1017.29 1017.36 1017.42 1017.47 1017.50 1017.53 1017.54 1017.55 1017.57 1017.58 1017.59 1017.58 1017.54 1017.47 1017.34 1017.15 1016.90 1016.58 1016.20 1015.79 1015.35 1014.92 1014.51 1014.13 1013.81 1013.55 1013.36 1013.24 1013.18 1013.19 1013.26 1013.39
1014.11 1014.58 1015.00 1015.37 1015.69 1015.96 1016.17 1016.34 1016.47 1016.58 1016.65 1016.71 1016.74 1016.77 1016.78 1016.78 1016.78 1016.78 1016.78 1016.80 1016.83 1016.85 1016.88 1016.89 1016.85 1016.77 1016.62 1016.41 1016.13 1015.78 1015.39 1014.96 1014.53 1014.10 1013.70 1013.34 1013.03 1012.78 1012.60 1012.49 1012.45 1012.48 1012.56
1013.34 1013.82 1014.27 1014.67 1015.03 1015.33 1015.57 1015.75 1015.88 1015.97 1016.03 1016.06 1016.06 1016.04 1016.02 1015.98 1015.95 1015.92 1015.91 1015.92 1015.95 1015.98 1016.02 1016.04 1016.03 1015.98 1015.87 1015.69 1015.45 1015.14 1014.79 1014.40 1013.99 1013.59 1013.20 1012.84 1012.52 1012.25 1012.04 1011.88 1011.79 1011.76 1011.79
1012.67 1013.15 1013.61 1014.03 1014.40 1014.71 1014.96 1015.14 1015.27 1015.34 1015.37 1015.37 1015.33 1015.28 1015.21 1015.14 1015.08 1015.03 1015.00 1014.99 1015.00 1015.02 1015.05 1015.07 1015.06 1015.02 1014.92 1014.77 1014.56 1014.31 1014.01 1013.68 1013.33 1012.98 1012.64 1012.32 1012.02 1011.76 1011.53 1011.34 1011.21 1011.12 1011.09
Thickness
5728 5727 5724 5723 5724 5723 5723 5721 5721 5720 5719 5719 5719 5719 5720 5721 5721 5721 5722 5718 5716 5715 5714 5713 5712 5712 5711 5710 5710 5710 5710 5710 5711 5711 5711 5711 5710 5710 5709 5709 5709 5708 5708
5724 5723 5721 5720 5720 5720 5719 5718 5718 5717 5718 5717 5717 5716 5716 5717 5716 5715 5718 5717 5714 5713 5712 5712 5711 5710 5710 5709 5708 5707 5708 5708 5708 5709 5709 5709 5709 5709 5708 5708 5708 5707 5707
5720 5720 5719 5718 5717 5716 5715 5715 5715 5716 5716 5716 5715 5715 5714 5713 5714 5713 5714 5714 5715 5713 5712 5710 5710 5709 5708 5707 5706 5705 5705 5706 5706 5707 5707 5707 5707 5707 5707 5707 5707 5707 5706
5717 5716 5716 5716 5713 5713 5714 5713 5714 5714 5714 5714 5713 5713 5713 5712 5711 5711 5713 5713 5713 5714 5712 5710 5709 5707 5706 5706 5705 5704 5703 5703 5704 5704 5705 5705 5706 5706 5706 5706 5706 5706 5705
5714 5714 5713 5711 5711 5712 5712 5712 5711 5711 5710 5710 5712 5711 5712 5712 5710 5711 5711 5712 5712 5711 5712 5709 5708 5707 5706 5705 5704 5702 5702 5701 5702 5702 5703 5703 5704 5704 5704 5704 5704 5704 5704
5713 5713 5711 5708 5710 5710 5708 5707 5706 5705 5706 5707 5710 5710 5710 5710 5710 5711 5710 5711 5710 5710 5711 5710 5708 5707 5705 5704 5703 5702 5701 5700 5700 5700 5701 5701 5702 5702 5703 5703 5703 5703 5704
5711 5710 5711 5707 5707 5707 5705 5706 5705 5705 5706 5705 5707 5707 5709 5709 5707 5706 5707 5708 5709 5708 5708 5707 5707 5706 5705 5703 5701 5701 5700 5700 5699 5699 5699 5699 5700 5700 5701 5702 5702 5702 5702
5710 5710 5707 5708 5706 5704 5702 5702 5700 5703 5704 5703 5703 5704 5703 5704 5702 5705 5704 5704 5704 5705 5706 5705 5704 5702 5703 5703 5701 5699 5699 5698 5698 5698 5698 5698 5698 5698 5699 5700 5700 5701 5701
5710 5709 5707 5707 5705 5706 5703 5700 5699 5698 5700 5701 5700 5700 5700 5700 5700 5701 5698 5699 5698 5700 5702 5701 5700 5700 5700 5700 5699 5697 5697 5697 5697 5698 5697 5696 5697 5697 5697 5698 5699 5699 5700
5710 5708 5706 5705 5704 5705 5701 5701 5699 5698 5696 5698 5697 5695 5695 5694 5692 5694 5696 5696 5695 5694 5695 5697 5697 5695 5695 5697 5694 5693 5693 5693 5694 5695 5695 5695 5695 5696 5696 5696 5697 5697 5698
5710 5709 5706 5705 5703 5703 5701 5698 5696 5695 5696 5695 5695 5694 5691 5690 5690 5688 5688 5690 5693 5693 5692 5691 5691 5691 5690 5690 5690 5688 5688 5689 5690 5691 5692 5693 5693 5694 5693 5694 5695 5696 5696
5712 5709 5707 5704 5703 5702 5699 5697 5694 5693 5692 5690 5690 5690 5689 5687 5686 5685 5684 5683 5685 5689 5687 5686 5687 5686 5686 5686 5685 5682 5682 5683 5685 5686 5687 5689 5690 5690 5691 5692 5693 5693 5694
5714 5710 5708 5704 5703 5700 5698 5696 5693 5692 5690 5687 5685 5686 5686 5684 5683 5681 5680 5680 5679 5683 5682 5684 5684 5681 5681 5680 5679 5676 5677 5677 5679 5680 5682 5683 5685 5686 5687 5689 5690 5690 5691
5716 5711 5707 5704 5702 5699 5697 5694 5694 5691 5688 5685 5684 5681 5680 5681 5679 5677 5675 5674 5674 5678 5679 5678 5679 5677 5675 5674 5672 5670 5673 5672 5672 5674 5675 5677 5679 5681 5682 5684 5685 5687 5687
5714 5710 5706 5704 5701 5698 5696 5693 5693 5688 5686 5684 5683 5680 5678 5679 5676 5674 5672 5670 5667 5666 5670 5672 5672 5672 5668 5668 5666 5665 5666 5667 5666 5667 5669 5670 5672 5674 5676 5678 5680 5682 5683
5712 5708 5706 5703 5700 5697 5694 5691 5689 5687 5683 5681 5679 5676 5674 5675 5673 5671 5669 5667 5664 5661 5661 5667 5665 5667 5663 5661 5662 5660 5661 5661 5661 5662 5662 5664 5665 5667 5669 5671 5673 5675 5677
5709 5707 5704 5702 5699 5696 5693 5689 5688 5685 5681 5679 5677 5674 5671 5669 5669 5668 5666 5664 5661 5658 5656 5659 5661 5661 5657 5654 5656 5656 5656 5657 5660 5659 5658 5658 5658 5660 5662 5664 5666 5669 5671
5708 5705 5703 5700 5697 5695 5691 5688 5684 5683 5679 5677 5675 5672 5669 5667 5664 5662 5661 5660 5658 5655 5652 5650 5652 5654 5653 5651 5650 5649 5652 5654 5654 5655 5653 5652 5653 5654 5655 5657 5659 5662 5664
5706 5704 5700 5697 5695 5693 5689 5686 5683 5680 5677 5675 5672 5669 5667 5664 5660 5660 5657 5656 5655 5654 5650 5648 5648 5649 5647 5647 5645 5645 5647 5646 5648 5650 5649 5648 5648 5648 5649 5651 5653 5655 5658
5704 5701 5698 5695 5693 5690 5687 5684 5681 5678 5675 5672 5669 5667 5664 5662 5658 5655 5653 5650 5649 5647 5646 5644 5644 5644 5643 5643 5640 5639 5641 5644 5643 5645 5645 5645 5643 5643 5644 5645 5647 5649 5651
5703 5699 5696 5693 5690 5688 5686 5682 5678 5675 5672 5669 5666 5664 5662 5659 5655 5651 5650 5649 5645 5642 5642 5641 5640 5639 5639 5636 5635 5636 5635 5635 5637 5638 5638 5639 5641 5642 5643 5642 5642 5643 5644
5700 5697 5693 5690 5687 5686 5683 5676 5672 5671 5669 5666 5663 5661 5659 5655 5651 5646 5642 5640 5637 5636 5636 5634 5634 5633 5630 5630 5629 5627 5627 5627 5627 5632 5630 5631 5634 5636 5638 5638 5640 5639 5638
5696 5692 5689 5686 5684 5682 5676 5670 5665 5663 5663 5662 5660 5658 5657 5658 5651 5647 5642 5635 5632 5628 5626 5626 5627 5626 5625 5624 5621 5620 5619 5618 5618 5620 5620 5622 5625 5627 5630 5633 5632 5631 5631
5692 5689 5686 5683 5681 5678 5672 5666 5660 5657 5658 5658 5657 5655 5652 5651 5649 5644 5640 5638 5635 5632 5627 5621 5621 5621 5620 5617 5614 5611 5611 5611 5611 5612 5612 5612 5617 5620 5624 5626 5626 5625 5624
5688 5685 5682 5679 5676 5674 5668 5661 5654 5655 5656 5655 5654 5653 5650 5647 5643 5636 5632 5631 5630 5630 5627 5622 5619 5616 5612 5608 5605 5604 5605 5605 5608 5611 5611 5608 5611 5613 5616 5619 5621 5620 5619
5682 5680 5678 5675 5672 5669 5664 5656 5649 5651 5652 5652 5652 5650 5645 5642 5638 5631 5627 5626 5624 5624 5622 5621 5614 5610 5607 5605 5600 5597 5599 5600 5602 5604 5607 5603 5603 5604 5606 5613 5615 5616 5615